Powrót do katalogu

COSMOS 2251 DEB

AktywnyLEO
NORAD 34813·DEBRIS·🇷🇺 Russia

Wystrzelony Jun 16, 1993 z Plesetsk Cosmodrome

Loading…

Następne Przeloty (najbliższe 24 godziny)

TLE

ŚwieżeSource: Space-Track

Epoka: Sep 13, 2026, 11:28 UTC

1 34813U 93036ABC 26256.47785943  .00001306  00000-0  10710-2 0  9999
2 34813  73.9248  50.8611 0448623  33.4389 329.4203 13.51995646853662

Śledź COSMOS 2251 DEB w czasie rzeczywistym z AllMySat

Download on the App Store